User: anonymous   Login
Location: City of Moscow
(46.7306°N, 116.9989°W)
Time: 15:03:10
(UTC+00:00)
Language:

O/OREOS (USA 219) - Orbit

View from above orbital plane
View from above orbital plane
View from above satellite
View from above satellite

Ground track
Ground track

The orbit is defined by the following mean orbital elements,

1 37224U          26108.98988391 +.00000000 +00000-0 +15545-3 0 00006
2 37224  71.9704 214.4010 0014781 187.0557 173.0408 14.93501969    04
Epoch (UTC): 18 April 2026 23:45:25
Eccentricity: 0.0014781
inclination: 71.9704°
perigee height: 577 km
apogee height: 597 km
right ascension of ascending node: 214.4010°
argument of perigee: 187.0557°
revolutions per day: 14.93501969
mean anomaly at epoch: 173.0408°

The dashed part of the orbit path shows where the satellite is in the earth's shadow,  

DLR